This demonstration page uses our WeatherBlox Daily Observations layout. Learn more.

Left ArrowRight Arrow

34.02893, -84.19858

Hourly Observations for July 8, 2022

Temp ( °F °C ) Dew Point ( °F °C ) Humidity (%) Winds ( mph kmh ) Pressure ( in mb ) Visibility ( mi km ) Precip ( " mm )
12:53 am 00:53 Clear 77 25 73 22.8 88 88 S 5 7 29.99 1016 10 16 0.00 0.00
1:53 am 01:53 Clear 76 24.4 73 22.8 91 91 WSW 5 7 29.96 1015 10 16 0.00 0.00
2:53 am 02:53 Clear 78 25.6 73 22.8 85 85 SW 6 9 29.95 1014 10 16 0.00 0.00
3:53 am 03:53 Clear 77 25 73 22.8 88 88 Calm 29.95 1014 10 16 0.00 0.00
4:53 am 04:53 Clear 76 24.4 73 22.8 91 91 N 3 6 29.96 1015 10 16 0.00 0.00
5:53 am 05:53 Clear 75 23.9 73 22.8 94 94 Calm 29.98 1015 10 16 0.00 0.00
6:53 am 06:53 Sunny 74 23.3 73 22.8 97 97 Calm 29.99 1016 9 14 0.00 0.00
7:53 am 07:53 Sunny 78 25.6 74 23.3 87 87 W 3 6 30.01 1016 10 16 0.00 0.00
8:53 am 08:53 Sunny 80 26.7 72 22.2 76 76 W 6 9 30.03 1017 10 16 0.00 0.00
9:53 am 09:53 Sunny 84 28.9 73 22.8 70 70 VRB 3 6 30.03 1017 10 16 0.00 0.00
10:53 am 10:53 Sunny 87 30.6 75 23.9 67 67 undefined N/A 30.02 1017 10 16 0.00 0.00
11:53 am 11:53 Sunny 89 31.7 74 23.3 61 61 W 7 11 30.02 1017 10 16 0.00 0.00
12:53 pm 12:53 Sunny 91 32.8 72 22.2 54 54 NW 3 6 30.00 1016 10 16 0.00 0.00
1:53 pm 13:53 Sunny 93 33.9 72 22.2 50 50 NW 6 9 29.97 1015 10 16 0.00 0.00
2:53 pm 14:53 Mostly Sunny 95 35 73 22.8 49 49 NW 8 13 29.94 1014 10 16 0.00 0.00
3:53 pm 15:53 Mostly Sunny 96 35.6 73 22.8 47 47 undefined N/A 29.92 1013 10 16 0.00 0.00
4:53 pm 16:53 Mostly Sunny 95 35 71 21.7 46 46 SSW 3 6 29.93 1013 10 16 0.00 0.00
5:53 pm 17:53 Mostly Cloudy 88 31.1 75 23.9 66 66 S 10 17 29.94 1014 10 16 0.00 0.00
6:23 pm 18:23 Partly Cloudy with Nearby Thunderstorms 88 31.1 75 23.9 66 66 SSW 10 17 29.95 1014 10 16 0.00 0.00
6:49 pm 18:49 Mostly Sunny 88 31 75 24 66 66 S 10 17 29.95 1014 10 16 0.00 0.00
6:53 pm 18:53 Mostly Sunny 87 30.6 76 24.4 70 70 SW 12 19 29.95 1014 10 16 0.00 0.00
7:53 pm 19:53 Mostly Sunny 84 28.9 72 22.2 67 67 SSW 12 19 29.96 1015 10 16 0.00 0.00
8:53 pm 20:53 Clear 82 27.8 73 22.8 74 74 SSW 12 19 29.98 1015 10 16 0.00 0.00
9:53 pm 21:53 Mostly Cloudy 82 27.8 74 23.3 77 77 W 8 13 30.01 1016 10 16 0.00 0.00
10:01 pm 22:01 Cloudy with Thunderstorms 82 27.8 73 22.8 74 74 N 21 33 30.04 1017 10 16 0.00 0.00
10:10 pm 22:10 Cloudy with Strong Thunderstorms 74 23.3 70 21.1 88 88 NNW 15 24 30.06 1018 3 4 0.07 1.78
10:23 pm 22:23 Cloudy with Thunderstorms 73 22.8 70 21.1 90 90 N 9 15 30.07 1018 7 11 0.09 2.29
10:41 pm 22:41 Partly Cloudy with Nearby Thunderstorms 73 22.8 71 21.7 94 94 SSE 5 7 30.06 1018 10 16 0.09 2.29
10:48 pm 22:48 Mostly Cloudy with Thunderstorms 73 23 72 22 94 94 VRB 3 6 30.06 1018 10 16 0.09 2.29
10:53 pm 22:53 Mostly Cloudy with Thunderstorms 73 22.8 71 21.7 94 94 Calm 30.04 1017 10 16 0.09 2.29
10:59 pm 22:59 Partly Cloudy 72 22.2 71 21.7 97 97 Calm 30.06 1018 10 16 0.00 0.00
11:53 pm 23:53 Mostly Cloudy 72 22.2 71 21.7 97 97 VRB 3 6 30.04 1017 10 16 0.01 0.25

Powered by AerisWeather